Погода в Паневежисе

Поиск расширенной информации на нашем сайте:

Полезная информация:

Новости сайта



02.01.2020
Опубликован Долгосрочный прогноз погоды по городам России и ближнего зарубежья на январь 2020 года.
Карты: Прогноз на январь и февраль 2020 года, Сравнение прогнозируемой аномалии приземной температуры воздуха на январь 2020 года по разным моделям.




Погода в Паневежисе - сегодня

Время (UTC), дата Ветер
(°,м/с) 
Видим.   Явления Облачность Т
(°С)
Тd
(°С)
f(%) Тe
(°С)
Pmin
(гПа)
dP
(гПа)
Po
(мм)
O2
(г/м3)
Тmin Tmax R s Состояние
почвы
21 15.01.22 280 (З) 3-5{07}  20000 м    ясно <0100 м 
-0.5 -3.8 78 -2  1019.4  0.1  759  307           
00 16.01.22 260 (З) 2-4{06}  20000 м    ясно <0100 м 
-1.4 -3.4 86 -2  1019  -0.4  759  308           
03 16.01.22 220 (ЮЗ) 2-3{05}  20000 м    8/0 
-2.4 -3.7 91 -3  1018.2  -0.9  758  309           
06 16.01.22 210 (ЮЗ) 3-6{06}  20000 м    9/9 200 м 
-0.7 -1.9 92 -3  1016.2  -1.9  757  306  -2.4         
09 16.01.22 220 (ЮЗ) 7-11{11}  19000 м    10/10 300 м 
+0.6 -1.9 83 -3  1015  -1.2  756  304           
12 16.01.22 210 (ЮЗ) 6-10{11}  15000 м    10/10 200 м 
+0 -2.2 85 -3  1012.2  -2.8  754  304           
15 16.01.22 220 (ЮЗ) 6-10{12}  8000 м  слаб. ливневой снег  10/10 100 м 
-0.5 -1.8 91 -4  1009.4  -2.7  752  304           
18 16.01.22 220 (ЮЗ) 7-11{12}  7000 м  дымка  10/10 200 м 
-0.8 -2.6 88 -5  1005.5  -3.9  749  303    +0.6       
21 16.01.22 210 (ЮЗ) 6-11{14}  9000 м  в посл. час снег  10/10 200 м 
-0.5 -1.9 90 -4  1001.3  -4.2  746  301           
00 17.01.22 220 (ЮЗ) 7-11{14}  9000 м  слаб. ливневой дождь  10/10 100 м 
+1 -0.3 91 -3  995.7  -5.5  741  298      0.0     
03 17.01.22 220 (ЮЗ) 7-13{14}  19000 м  в посл. час дождь  10/10 200 м 
+1.8 +0.5 91 -2  989.3  -6.3  737  295           
06 17.01.22 240 (ЮЗ) 6-10{14}  5000 м  слаб. снег  10/10 300 м 
+0.6 -0.1 95 -3  983.7  -5.6  732  294  -1       
09 17.01.22 300 (СЗ) 7-12{16}  20000 м  в посл. час снег  9/9 600 м 
+0.5 -1.9 84 -3  987.4  3.6  735  296         
12 17.01.22 300 (СЗ) 7-13{20}  1300 м  снег  10/10 300 м 
-0.4 -1.4 93 -4  989.4  737  297       
15 17.01.22 330 (СЗ) 11-19{24}  19000 м  слаб. снег  10/10 600 м 
-0.4 -3.9 77 -6  997.4  7.9  743  300         
18 17.01.22 330 (СЗ) 8-14{19}  20000 м    ясно <0100 м 
-1.3 -6.8 66 -6  1006.3  8.9  749  304    +0.7   
21 17.01.22 320 (СЗ) 5-9{14}  20000 м    ясно 
-2.3 -7.3 69 -6  1011.1  4.8  753  307         
00 18.01.22 290 (З) 4-7{10}  20000 м    9/9 1000 м 
-1.2 -4.9 76 -4  1013.4  2.3  755  306         
03 18.01.22 320 (СЗ) 5-8{12}  20000 м    ясно 
-1.1 -4.7 76 -4  1016.1  2.6  757  307         
06 18.01.22 320 (СЗ) 4-9{09}  20000 м    ясно 
-2.7 -5.4 82 -6  1019.8  3.6  759  310  -2.5       
09 18.01.22 320 (СЗ) 4-7{09}  20000 м    ясно <0100 м 
-1.6 -6.2 71 -4  1023.4  3.6  762  310         
12 18.01.22 320 (СЗ) 4-9{09}  20000 м    6/0 
-0.4 -5.3 69 -3  1024.9  1.5  763  309         
15 18.01.22 270 (З) 3-5{09}  20000 м    ясно 
-1.1 -5.1 74 -3  1026.2  1.4  764  310         
18 18.01.22 240 (ЮЗ) 2-3{05}  13000 м    9/9 600 м 
-1.9 -3.7 87 -3  1026.2  -0.1  764  310    +0     
21 18.01.22 210 (ЮЗ) 3-4{04}  19000 м    9/0 
-2.3 -3.8 89 -4  1024.6  -1.6  763  310         
Время (UTC), дата Ветер
(°,м/с) 
Видим.   Явления Облачность Т
(°С)
Тd
(°С)
f(%) Тe
(°С)
Pmin
(гПа)
dP
(гПа)
Po
(мм)
O2
(г/м3)
Тmin Tmax R s Состояние
почвы

Для получения пояснительной информации подведите курсор к названию столбца.

ПОГОДА в Паневежисе - архив

Всё, что Вы хотите узнать о погоде в Паневежисе - удобно и подробно!

Выберите нужную дату (начиная с 1 января 2019* года) и нажмите кнопку "Найти".
Будут отображены архивные сводки погоды по пункту Паневежис, начиная с указанной даты.


Отображать данные в формате CSV (для использования в таблицах Excel)


Внимание! Наш архив погоды предназначен исключительно для личного некоммерческого использования в познавательных целях. Если Вам необходимы официальные справки о состоянии погоды (для производственных, юридических, коммерческих и т.п. целей), обращайтесь в органы Росгидромета.

*Примечание: данная дата относится к архиву по метеостанциям СССР (Россия, СНГ, Балтия).
Архив по метеостанциям Зарубежной Европы и Азии (кроме Китая) хранится 10 дней, по другим регионам земного шара (Китай, Африка, Америка, Австралия, Океания) - 1 день.

Паневежис - район местоположения метеостанции


Название, широта, долгота, высота метеостанции:
Паневежис 55.8°ш. 24.4°д. 58 м над ур. моря [Литва]

Дополнительная информация

В oтличие oт бoльшинства пoгoдных сайтoв мы публикуем пoдрoбную метеoинфoрмацию в детальнoм прoфессиoнальнoм фoрмате.

Характеристики температуры и влажнoсти вoздуха измеряются на высoте 2 м в тени вдали oт зданий и деревьев.
Скoрoсть ветра измеряется на высoте 10 м (на урoвне рoста челoвека скoрoсть ветра ниже в 1.5-2 раза). Если метеoстанция нахoдится в гoрoде или в лесу, тo скoрoсть ветра занижена на 2-4 м/с пo сравнению с oткрытым местoм. Скoрoсть ветра над акватoриями крупных рек и oзёр, а также на вершинах хoлмoв на 2-5 м/с выше, чем в oбычных услoвиях.
Атмoсфернoе давление в разных тoчках местнoсти мoжет значительнo oтличаться oт давления на метеoстанции, в зависимoсти oт услoвий рельефа (при пoдъёме на 10 м давление пoнижается примернo на 1 мм рт.ст.).